Time,TemperatureF,DewpointF,PressureIn,WindDirection,WindDirectionDegrees,WindSpeedMPH,WindSpeedGustMPH,Humidity,HourlyPrecipIn,Conditions,Clouds,dailyrainin,SoftwareType,DateUTC
2013-10-03 00:00:00,80.5,73.4,30.05,ENE,70,4.0,4.0,79,0.00,,,0.00,Wunderground v.1.15,2013-10-03 04:00:00,
2013-10-03 00:10:00,80.6,73.5,30.05,East,99,4.0,4.0,79,0.00,,,0.00,Wunderground v.1.15,2013-10-03 04:10:00,
2013-10-03 00:20:00,80.6,73.5,30.05,ENE,72,3.0,4.0,79,0.00,,,0.00,Wunderground v.1.15,2013-10-03 04:20:00,
2013-10-03 00:30:00,80.7,73.6,30.04,ESE,103,4.0,4.0,79,0.00,,,0.00,Wunderground v.1.15,2013-10-03 04:30:00,
2013-10-03 00:40:00,80.8,73.7,30.04,East,82,3.0,4.0,79,0.00,,,0.00,Wunderground v.1.15,2013-10-03 04:40:00,
2013-10-03 00:50:00,80.9,73.8,30.04,ENE,69,3.0,3.0,79,0.00,,,0.00,Wunderground v.1.15,2013-10-03 04:50:00,
2013-10-03 01:00:00,81.0,73.5,30.03,East,98,3.0,3.0,78,0.00,,,0.00,Wunderground v.1.15,2013-10-03 05:00:00,
2013-10-03 01:10:00,81.1,73.6,30.03,NE,53,4.0,4.0,78,0.00,,,0.00,Wunderground v.1.15,2013-10-03 05:10:00,
2013-10-03 01:20:00,81.1,73.6,30.03,ENE,75,4.0,4.0,78,0.00,,,0.00,Wunderground v.1.15,2013-10-03 05:20:00,
2013-10-03 01:30:00,81.2,73.7,30.03,East,84,4.0,4.0,78,0.00,,,0.00,Wunderground v.1.15,2013-10-03 05:30:00,
2013-10-03 01:40:00,81.1,73.6,30.03,ENE,71,4.0,6.0,78,0.00,,,0.00,Wunderground v.1.15,2013-10-03 05:40:00,
2013-10-03 01:50:00,81.1,73.6,30.03,East,97,4.0,4.0,78,0.00,,,0.00,Wunderground v.1.15,2013-10-03 05:50:00,
2013-10-03 02:00:00,81.0,73.5,30.02,ENE,57,3.0,3.0,78,0.00,,,0.00,Wunderground v.1.15,2013-10-03 06:00:00,
2013-10-03 02:10:00,81.0,73.5,30.02,East,87,3.0,3.0,78,0.00,,,0.00,Wunderground v.1.15,2013-10-03 06:10:00,
2013-10-03 02:20:00,81.0,73.5,30.02,ENE,75,3.0,3.0,78,0.00,,,0.00,Wunderground v.1.15,2013-10-03 06:20:00,
2013-10-03 02:30:00,81.0,73.5,30.01,East,79,4.0,5.0,78,0.00,,,0.00,Wunderground v.1.15,2013-10-03 06:30:00,
2013-10-03 02:40:00,81.0,73.5,30.01,East,89,4.0,4.0,78,0.00,,,0.00,Wunderground v.1.15,2013-10-03 06:40:00,
2013-10-03 02:50:00,81.0,73.9,30.00,ESE,122,4.0,4.0,79,0.00,,,0.00,Wunderground v.1.15,2013-10-03 06:50:00,
2013-10-03 03:00:00,81.0,73.9,30.00,SE,126,5.0,5.0,79,0.00,,,0.00,Wunderground v.1.15,2013-10-03 07:00:00,
2013-10-03 03:10:00,80.8,73.7,29.99,East,81,4.0,5.0,79,0.00,,,0.00,Wunderground v.1.15,2013-10-03 07:10:00,
2013-10-03 03:20:00,80.8,73.3,29.99,NE,47,4.0,4.0,78,0.00,,,0.00,Wunderground v.1.15,2013-10-03 07:20:00,
2013-10-03 03:30:00,80.7,73.6,29.98,ENE,73,4.0,5.0,79,0.00,,,0.00,Wunderground v.1.15,2013-10-03 07:30:00,
2013-10-03 03:40:00,80.7,73.2,29.97,ENE,78,5.0,9.0,78,0.00,,,0.00,Wunderground v.1.15,2013-10-03 07:40:00,
2013-10-03 03:50:00,80.8,73.7,29.97,East,101,6.0,6.0,79,0.00,,,0.00,Wunderground v.1.15,2013-10-03 07:50:00,
2013-10-03 04:00:00,80.8,73.7,29.97,ENE,77,5.0,5.0,79,0.00,,,0.00,Wunderground v.1.15,2013-10-03 08:00:00,
2013-10-03 04:10:00,80.8,73.7,29.97,East,84,5.0,5.0,79,0.00,,,0.00,Wunderground v.1.15,2013-10-03 08:10:00,
2013-10-03 04:20:00,80.7,73.6,29.97,East,96,5.0,5.0,79,0.00,,,0.00,Wunderground v.1.15,2013-10-03 08:20:00,
2013-10-03 04:30:00,80.5,73.4,29.97,ENE,70,4.0,4.0,79,0.00,,,0.00,Wunderground v.1.15,2013-10-03 08:30:00,
2013-10-03 04:40:00,80.5,73.8,29.97,NE,43,5.0,5.0,80,0.00,,,0.00,Wunderground v.1.15,2013-10-03 08:40:00,
2013-10-03 04:50:00,80.4,73.7,29.96,East,84,4.0,6.0,80,0.00,,,0.00,Wunderground v.1.15,2013-10-03 08:50:00,
2013-10-03 05:00:00,80.3,73.6,29.96,ENE,75,4.0,4.0,80,0.00,,,0.00,Wunderground v.1.15,2013-10-03 09:00:00,
2013-10-03 05:10:00,80.4,73.7,29.96,East,96,5.0,5.0,80,0.00,,,0.00,Wunderground v.1.15,2013-10-03 09:10:00,
2013-10-03 05:20:00,80.4,73.7,29.96,ENE,61,5.0,5.0,80,0.00,,,0.00,Wunderground v.1.15,2013-10-03 09:20:00,
2013-10-03 05:30:00,80.4,73.7,29.97,East,86,4.0,4.0,80,0.00,,,0.00,Wunderground v.1.15,2013-10-03 09:30:00,
2013-10-03 05:40:00,80.5,73.8,29.97,East,82,5.0,5.0,80,0.00,,,0.00,Wunderground v.1.15,2013-10-03 09:40:00,
2013-10-03 05:50:00,80.5,73.8,29.97,East,99,4.0,7.0,80,0.00,,,0.00,Wunderground v.1.15,2013-10-03 09:50:00,
2013-10-03 06:00:00,80.4,73.7,29.97,ENE,75,5.0,5.0,80,0.00,,,0.00,Wunderground v.1.15,2013-10-03 10:00:00,
2013-10-03 06:10:00,80.3,73.6,29.97,ENE,77,5.0,5.0,80,0.00,,,0.00,Wunderground v.1.15,2013-10-03 10:10:00,
2013-10-03 06:20:00,80.3,73.6,29.98,ENE,67,5.0,5.0,80,0.00,,,0.00,Wunderground v.1.15,2013-10-03 10:20:00,
2013-10-03 06:30:00,80.2,73.5,29.98,East,91,4.0,5.0,80,0.00,,,0.00,Wunderground v.1.15,2013-10-03 10:30:00,
2013-10-03 06:40:00,80.2,73.5,29.98,East,90,4.0,6.0,80,0.00,,,0.00,Wunderground v.1.15,2013-10-03 10:40:00,
2013-10-03 06:50:00,80.3,73.6,29.98,ENE,64,5.0,5.0,80,0.00,,,0.00,Wunderground v.1.15,2013-10-03 10:50:00,
2013-10-03 07:00:00,80.3,73.2,29.98,ENE,72,6.0,7.0,79,0.00,,,0.00,Wunderground v.1.15,2013-10-03 11:00:00,
2013-10-03 07:10:00,80.5,73.8,29.98,ESE,114,6.0,6.0,80,0.00,,,0.00,Wunderground v.1.15,2013-10-03 11:10:00,
2013-10-03 07:20:00,80.4,73.3,29.99,NE,44,4.0,5.0,79,0.00,,,0.00,Wunderground v.1.15,2013-10-03 11:20:00,
2013-10-03 07:30:00,80.5,73.4,29.99,NE,48,5.0,5.0,79,0.00,,,0.00,Wunderground v.1.15,2013-10-03 11:30:00,
2013-10-03 07:40:00,80.6,73.5,30.00,SE,136,4.0,4.0,79,0.00,,,0.00,Wunderground v.1.15,2013-10-03 11:40:00,
2013-10-03 07:50:00,80.7,74.0,30.00,East,84,5.0,5.0,80,0.00,,,0.00,Wunderground v.1.15,2013-10-03 11:50:00,
2013-10-03 08:00:00,81.2,73.7,30.00,East,85,4.0,4.0,78,0.00,,,0.00,Wunderground v.1.15,2013-10-03 12:00:00,
2013-10-03 08:10:00,81.7,73.8,30.01,ESE,122,4.0,4.0,77,0.00,,,0.00,Wunderground v.1.15,2013-10-03 12:10:00,
2013-10-03 08:20:00,82.3,74.4,30.01,SE,134,3.0,3.0,77,0.00,,,0.00,Wunderground v.1.15,2013-10-03 12:20:00,
2013-10-03 08:30:00,82.5,73.8,30.02,ESE,118,5.0,6.0,75,0.00,,,0.00,Wunderground v.1.15,2013-10-03 12:30:00,
2013-10-03 08:40:00,82.7,74.4,30.02,East,97,5.0,6.0,76,0.00,,,0.00,Wunderground v.1.15,2013-10-03 12:40:00,
2013-10-03 08:50:00,82.5,73.8,30.03,East,82,4.0,7.0,75,0.00,,,0.00,Wunderground v.1.15,2013-10-03 12:50:00,
2013-10-03 09:00:00,82.3,74.4,30.03,ENE,77,5.0,5.0,77,0.00,,,0.00,Wunderground v.1.15,2013-10-03 13:00:00,
2013-10-03 09:10:00,83.0,74.6,30.03,ESE,102,5.0,6.0,76,0.00,,,0.00,Wunderground v.1.15,2013-10-03 13:10:00,
2013-10-03 09:20:00,82.7,74.0,30.04,East,100,5.0,5.0,75,0.00,,,0.00,Wunderground v.1.15,2013-10-03 13:20:00,
2013-10-03 09:30:00,82.3,74.0,30.04,East,85,5.0,8.0,76,0.00,,,0.00,Wunderground v.1.15,2013-10-03 13:30:00,
2013-10-03 09:40:00,82.7,74.0,30.05,ESE,117,6.0,6.0,75,0.00,,,0.00,Wunderground v.1.15,2013-10-03 13:40:00,
2013-10-03 09:50:00,83.5,75.1,30.05,NE,51,5.0,5.0,76,0.00,,,0.00,Wunderground v.1.15,2013-10-03 13:50:00,
2013-10-03 10:00:00,83.7,74.9,30.05,ENE,70,5.0,5.0,75,0.00,,,0.00,Wunderground v.1.15,2013-10-03 14:00:00,
2013-10-03 10:10:00,83.6,74.4,30.05,ENE,77,5.0,5.0,74,0.00,,,0.00,Wunderground v.1.15,2013-10-03 14:10:00,
2013-10-03 10:20:00,83.8,74.2,30.05,ESE,115,6.0,6.0,73,0.00,,,0.00,Wunderground v.1.15,2013-10-03 14:20:00,
2013-10-03 10:30:00,83.4,74.2,30.05,ENE,74,6.0,6.0,74,0.00,,,0.00,Wunderground v.1.15,2013-10-03 14:30:00,
2013-10-03 10:40:00,84.0,74.8,30.06,East,92,5.0,5.0,74,0.00,,,0.00,Wunderground v.1.15,2013-10-03 14:40:00,
2013-10-03 10:50:00,84.0,74.0,30.06,NE,51,6.0,6.0,72,0.00,,,0.00,Wunderground v.1.15,2013-10-03 14:50:00,
2013-10-03 11:00:00,84.2,74.2,30.06,ENE,59,5.0,5.0,72,0.00,,,0.00,Wunderground v.1.15,2013-10-03 15:00:00,
2013-10-03 11:10:00,83.9,73.9,30.07,ENE,67,6.0,8.0,72,0.00,,,0.00,Wunderground v.1.15,2013-10-03 15:10:00,
2013-10-03 11:20:00,83.9,74.3,30.07,East,94,6.0,6.0,73,0.00,,,0.00,Wunderground v.1.15,2013-10-03 15:20:00,
2013-10-03 11:30:00,84.4,74.0,30.07,ESE,105,6.0,7.0,71,0.00,,,0.00,Wunderground v.1.15,2013-10-03 15:30:00,
2013-10-03 11:40:00,84.4,74.0,30.07,NE,56,7.0,11.0,71,0.00,,,0.00,Wunderground v.1.15,2013-10-03 15:40:00,
2013-10-03 11:50:00,84.5,74.1,30.07,East,96,6.0,8.0,71,0.00,,,0.00,Wunderground v.1.15,2013-10-03 15:50:00,
2013-10-03 12:00:00,84.7,74.3,30.07,East,84,6.0,8.0,71,0.00,,,0.00,Wunderground v.1.15,2013-10-03 16:00:00,
2013-10-03 12:10:00,85.4,74.1,30.07,ESE,108,6.0,7.0,69,0.00,,,0.00,Wunderground v.1.15,2013-10-03 16:10:00,
2013-10-03 12:20:00,84.4,73.1,30.07,ESE,110,6.0,6.0,69,0.00,,,0.00,Wunderground v.1.15,2013-10-03 16:20:00,
2013-10-03 12:30:00,84.5,74.1,30.06,ENE,77,6.0,6.0,71,0.00,,,0.00,Wunderground v.1.15,2013-10-03 16:30:00,
2013-10-03 12:40:00,84.6,73.3,30.06,ENE,70,6.0,6.0,69,0.00,,,0.00,Wunderground v.1.15,2013-10-03 16:40:00,
2013-10-03 12:50:00,84.4,73.1,30.06,ESE,117,7.0,7.0,69,0.00,,,0.00,Wunderground v.1.15,2013-10-03 16:50:00,
2013-10-03 13:00:00,84.3,73.0,30.05,ENE,62,6.0,7.0,69,0.00,,,0.00,Wunderground v.1.15,2013-10-03 17:00:00,
2013-10-03 13:10:00,84.6,72.9,30.05,East,79,7.0,9.0,68,0.00,,,0.00,Wunderground v.1.15,2013-10-03 17:10:00,
2013-10-03 13:20:00,84.9,73.2,30.04,East,81,6.0,6.0,68,0.00,,,0.00,Wunderground v.1.15,2013-10-03 17:20:00,
2013-10-03 13:30:00,84.5,73.2,30.04,East,89,6.0,6.0,69,0.00,,,0.00,Wunderground v.1.15,2013-10-03 17:30:00,
2013-10-03 13:40:00,84.6,73.7,30.04,NE,53,7.0,8.0,70,0.00,,,0.00,Wunderground v.1.15,2013-10-03 17:40:00,
2013-10-03 13:50:00,85.3,74.0,30.03,NE,51,6.0,6.0,69,0.00,,,0.00,Wunderground v.1.15,2013-10-03 17:50:00,
2013-10-03 14:00:00,84.9,73.6,30.03,ESE,118,6.0,6.0,69,0.00,,,0.00,Wunderground v.1.15,2013-10-03 18:00:00,
2013-10-03 14:10:00,85.4,74.1,30.02,ESE,103,6.0,10.0,69,0.00,,,0.00,Wunderground v.1.15,2013-10-03 18:10:00,
2013-10-03 14:20:00,84.8,73.1,30.02,ENE,60,7.0,7.0,68,0.00,,,0.00,Wunderground v.1.15,2013-10-03 18:20:00,
2013-10-03 14:30:00,84.5,72.3,30.02,East,82,7.0,9.0,67,0.00,,,0.00,Wunderground v.1.15,2013-10-03 18:30:00,
2013-10-03 14:40:00,85.0,73.3,30.02,NE,53,6.0,8.0,68,0.00,,,0.00,Wunderground v.1.15,2013-10-03 18:40:00,
2013-10-03 14:50:00,84.8,73.5,30.02,ESE,108,7.0,7.0,69,0.00,,,0.00,Wunderground v.1.15,2013-10-03 18:50:00,
2013-10-03 15:00:00,84.6,72.9,30.02,ENE,65,6.0,9.0,68,0.00,,,0.00,Wunderground v.1.15,2013-10-03 19:00:00,
2013-10-03 15:10:00,84.1,72.4,30.02,East,79,6.0,6.0,68,0.00,,,0.00,Wunderground v.1.15,2013-10-03 19:10:00,
2013-10-03 15:20:00,83.9,72.2,30.02,East,84,6.0,6.0,68,0.00,,,0.00,Wunderground v.1.15,2013-10-03 19:20:00,
2013-10-03 15:30:00,84.2,72.5,30.02,East,79,5.0,5.0,68,0.00,,,0.00,Wunderground v.1.15,2013-10-03 19:30:00,
2013-10-03 15:40:00,84.2,72.0,30.02,East,101,5.0,5.0,67,0.00,,,0.00,Wunderground v.1.15,2013-10-03 19:40:00,
2013-10-03 15:50:00,84.1,72.4,30.01,East,81,4.0,8.0,68,0.00,,,0.00,Wunderground v.1.15,2013-10-03 19:50:00,
2013-10-03 15:59:00,83.7,72.0,30.01,ENE,69,6.0,6.0,68,0.00,,,0.00,Wunderground v.1.15,2013-10-03 19:59:00,
2013-10-03 16:10:00,83.5,71.8,30.01,East,101,5.0,5.0,68,0.00,,,0.00,Wunderground v.1.15,2013-10-03 20:10:00,
2013-10-03 16:20:00,83.8,71.7,30.01,East,86,4.0,4.0,67,0.00,,,0.00,Wunderground v.1.15,2013-10-03 20:20:00,
2013-10-03 16:29:00,83.3,71.6,30.00,NE,54,5.0,5.0,68,0.00,,,0.00,Wunderground v.1.15,2013-10-03 20:29:00,
2013-10-03 16:40:00,83.2,71.5,30.00,ESE,110,4.0,4.0,68,0.00,,,0.00,Wunderground v.1.15,2013-10-03 20:40:00,
2013-10-03 16:50:00,83.0,70.9,30.00,ESE,103,4.0,6.0,67,0.00,,,0.00,Wunderground v.1.15,2013-10-03 20:50:00,
2013-10-03 17:00:00,82.9,71.3,30.00,ENE,68,4.0,4.0,68,0.00,,,0.00,Wunderground v.1.15,2013-10-03 21:00:00,
2013-10-03 17:10:00,82.9,71.7,30.00,ENE,71,4.0,4.0,69,0.00,,,0.00,Wunderground v.1.15,2013-10-03 21:10:00,
2013-10-03 17:20:00,82.9,70.8,30.00,East,93,4.0,4.0,67,0.00,,,0.00,Wunderground v.1.15,2013-10-03 21:20:00,
2013-10-03 17:29:00,82.8,71.6,30.00,ENE,72,3.0,4.0,69,0.00,,,0.00,Wunderground v.1.15,2013-10-03 21:29:00,
2013-10-03 17:40:00,82.6,71.8,30.01,East,81,4.0,4.0,70,0.00,,,0.00,Wunderground v.1.15,2013-10-03 21:40:00,
2013-10-03 17:50:00,82.7,71.5,30.01,ENE,73,4.0,4.0,69,0.00,,,0.00,Wunderground v.1.15,2013-10-03 21:50:00,
2013-10-03 18:00:00,82.7,71.1,30.01,East,79,3.0,6.0,68,0.00,,,0.00,Wunderground v.1.15,2013-10-03 22:00:00,
2013-10-03 18:10:00,82.5,71.3,30.01,East,85,4.0,4.0,69,0.00,,,0.00,Wunderground v.1.15,2013-10-03 22:10:00,
2013-10-03 18:20:00,82.5,71.3,30.01,East,81,2.0,2.0,69,0.00,,,0.00,Wunderground v.1.15,2013-10-03 22:20:00,
2013-10-03 18:30:00,82.4,71.6,30.01,NE,41,2.0,4.0,70,0.00,,,0.00,Wunderground v.1.15,2013-10-03 22:30:00,
2013-10-03 18:40:00,82.2,71.9,30.01,ESE,108,3.0,3.0,71,0.00,,,0.00,Wunderground v.1.15,2013-10-03 22:40:00,
2013-10-03 18:50:00,82.1,71.8,30.00,ENE,65,2.0,2.0,71,0.00,,,0.00,Wunderground v.1.15,2013-10-03 22:50:00,
2013-10-03 19:00:00,82.0,71.7,30.01,ENE,76,1.0,2.0,71,0.00,,,0.00,Wunderground v.1.15,2013-10-03 23:00:00,
2013-10-03 19:10:00,81.8,71.5,30.01,ENE,64,2.0,2.0,71,0.00,,,0.00,Wunderground v.1.15,2013-10-03 23:10:00,
2013-10-03 19:20:00,81.8,71.5,30.01,ENE,77,2.0,2.0,71,0.00,,,0.00,Wunderground v.1.15,2013-10-03 23:20:00,
2013-10-03 19:30:00,81.7,71.8,30.01,East,90,3.0,3.0,72,0.00,,,0.00,Wunderground v.1.15,2013-10-03 23:30:00,
2013-10-03 19:40:00,81.7,71.4,30.01,East,94,2.0,2.0,71,0.00,,,0.00,Wunderground v.1.15,2013-10-03 23:40:00,
2013-10-03 19:50:00,81.6,71.3,30.01,SE,127,2.0,3.0,71,0.00,,,0.00,Wunderground v.1.15,2013-10-03 23:50:00,
2013-10-03 20:00:00,81.6,71.3,30.01,ENE,72,2.0,2.0,71,0.00,,,0.00,Wunderground v.1.15,2013-10-04 00:00:00,
2013-10-03 20:10:00,81.5,71.6,30.02,ENE,62,2.0,3.0,72,0.00,,,0.00,Wunderground v.1.15,2013-10-04 00:10:00,
2013-10-03 20:20:00,81.5,71.6,30.02,ENE,69,2.0,2.0,72,0.00,,,0.00,Wunderground v.1.15,2013-10-04 00:20:00,
2013-10-03 20:30:00,81.5,71.6,30.03,ENE,76,3.0,3.0,72,0.00,,,0.00,Wunderground v.1.15,2013-10-04 00:30:00,
2013-10-03 20:40:00,81.3,71.4,30.03,East,84,1.0,1.0,72,0.00,,,0.00,Wunderground v.1.15,2013-10-04 00:40:00,
2013-10-03 20:50:00,81.3,71.4,30.03,East,79,1.0,1.0,72,0.00,,,0.00,Wunderground v.1.15,2013-10-04 00:50:00,
2013-10-03 21:00:00,81.2,71.7,30.04,East,92,2.0,2.0,73,0.00,,,0.00,Wunderground v.1.15,2013-10-04 01:00:00,
2013-10-03 21:10:00,81.0,71.1,30.04,East,79,2.0,2.0,72,0.00,,,0.00,Wunderground v.1.15,2013-10-04 01:10:00,
2013-10-03 21:20:00,81.1,71.6,30.04,ENE,78,2.0,2.0,73,0.00,,,0.00,Wunderground v.1.15,2013-10-04 01:20:00,
2013-10-03 21:30:00,80.9,71.4,30.04,East,85,1.0,1.0,73,0.00,,,0.00,Wunderground v.1.15,2013-10-04 01:30:00,
2013-10-03 21:40:00,80.8,71.3,30.04,East,82,1.0,1.0,73,0.00,,,0.00,Wunderground v.1.15,2013-10-04 01:40:00,
2013-10-03 21:50:00,80.8,71.7,30.05,East,98,1.0,1.0,74,0.00,,,0.00,Wunderground v.1.15,2013-10-04 01:50:00,
2013-10-03 22:00:00,80.8,71.7,30.05,East,90,1.0,1.0,74,0.00,,,0.00,Wunderground v.1.15,2013-10-04 02:00:00,
2013-10-03 22:10:00,80.8,71.7,30.05,ENE,57,2.0,3.0,74,0.00,,,0.00,Wunderground v.1.15,2013-10-04 02:10:00,
2013-10-03 22:20:00,80.8,71.7,30.05,East,85,2.0,2.0,74,0.00,,,0.00,Wunderground v.1.15,2013-10-04 02:20:00,
2013-10-03 22:30:00,80.9,71.8,30.06,East,86,3.0,3.0,74,0.00,,,0.00,Wunderground v.1.15,2013-10-04 02:30:00,
2013-10-03 22:40:00,80.9,71.8,30.06,East,85,2.0,2.0,74,0.00,,,0.00,Wunderground v.1.15,2013-10-04 02:40:00,
2013-10-03 22:50:00,80.7,71.6,30.06,East,96,1.0,3.0,74,0.00,,,0.00,Wunderground v.1.15,2013-10-04 02:50:00,
2013-10-03 23:00:00,80.7,71.6,30.06,East,82,2.0,2.0,74,0.00,,,0.00,Wunderground v.1.15,2013-10-04 03:00:00,
2013-10-03 23:10:00,80.7,72.0,30.06,East,86,1.0,2.0,75,0.00,,,0.00,Wunderground v.1.15,2013-10-04 03:10:00,
2013-10-03 23:20:00,80.8,72.5,30.05,ENE,71,2.0,3.0,76,0.00,,,0.00,Wunderground v.1.15,2013-10-04 03:20:00,
2013-10-03 23:30:00,80.8,72.5,30.05,East,89,2.0,2.0,76,0.00,,,0.00,Wunderground v.1.15,2013-10-04 03:30:00,
2013-10-03 23:40:00,80.7,72.4,30.05,East,86,2.0,2.0,76,0.00,,,0.00,Wunderground v.1.15,2013-10-04 03:40:00,
2013-10-03 23:50:00,80.6,72.7,30.05,ESE,103,2.0,3.0,77,0.00,,,0.00,Wunderground v.1.15,2013-10-04 03:50:00,